Regional Weather Roundup
Issued by NWS

Home | Current Version | Previous Version | Graphics & Text | Print | Product List | Glossary On
Versions: 1 2 3 4 5 6 7 8 9 10 11 12 13 14 15 16 17 18 19 20 21 22 23 24 25 26 27 28 29 30 31 32 33 34 35 36 37 38 39 40 41 42 43 44 45 46 47 48 49 50
000
ASUS43 KLSX 281359
RWRMO

WEATHER SUMMARY FOR MISSOURI
NATIONAL WEATHER SERVICE SPRINGFIELD MO
900 AM CDT THU AUG 28 2014

NOTE: "FAIR" INDICATES FEW OR NO CLOUDS BELOW 12,000 FEET WITH NO
       SIGNIFICANT WEATHER AND/OR OBSTRUCTIONS TO VISIBILITY.
       CURRENT SKY AND/OR WEATHER CONDITIONS ARE NOT AVAILABLE FOR
       CHILLICOTHE AND FARMINGTON.

MOZ001>031-035>038-043-044-053-054-281500-
...NORTHERN AND WESTERN MISSOURI...

CITY           SKY/WX    TMP DP  RH WIND       PRES   REMARKS
KANSAS CTY INT CLOUDY    79  73  82 S8        29.98S
KANSAS C DTWN  PTSUNNY   80  71  74 S3        29.97S
LEE`S SUMMIT   CLOUDY    77  70  79 SW8       29.99S
ST JOSEPH      PTSUNNY   74  71  91 E5        29.98S
KIRKSVILLE     CLOUDY    74  69  85 SE8       30.03S

$$
MOZ066>068-077>081-088>096-101>105-281500-
...SOUTHWEST MISSOURI...

CITY           SKY/WX    TMP DP  RH WIND       PRES   REMARKS
SPRINGFIELD    SUNNY     80  69  69 S10       30.04S
JOPLIN         SUNNY     81  68  64 S10       30.02S

$$
MOZ032>034-039>042-045>050-055>058-069>072-281500-
...CENTRAL MISSOURI...

CITY           SKY/WX    TMP DP  RH WIND       PRES   REMARKS
COLUMBIA       SUNNY     77  71  82 MISG      30.03S
JEFFERSON CITY SUNNY     76  70  82 E6        30.02S
ROLLA          SUNNY     78  69  73 SE6       30.05S
SEDALIA        SUNNY     81  70  69 S10       30.01S
OSAGE BEACH    SUNNY     79  68  69 SE5       30.03S

$$
MOZ051-052-059>065-281500-
...EAST CENTRAL MISSOURI...

CITY           SKY/WX    TMP DP  RH WIND       PRES   REMARKS
ST LOUIS INTL  MOSUNNY   79  71  76 E6        30.06S
SPIRIT OF STL  SUNNY     77  72  84 CALM      30.04S
ST CHARLES     SUNNY     76  71  85 E7        30.05S

$$
MOZ072>076-082>087-097>100-106>115-281500-
...SOUTH CENTRAL AND SOUTHEAST MISSOURI...

CITY           SKY/WX    TMP DP  RH WIND       PRES   REMARKS
CAPE GIRARDEAU SUNNY     81  73  76 NE3       30.04S
FARMINGTON     SUNNY     73  70  88 S3        30.09S
POPLAR BLUFF   SUNNY     80  71  74 CALM      30.03F
WEST PLAINS    SUNNY     77  69  76 SE3       30.08F

$$


USA.gov is the U.S. government's official web portal to all federal, state and local government web resources and services.